Regional Weather Roundup
Issued by NWS New Orleans/Baton Rouge, LA

Home | Current Version | Previous Version | Text Only | Print | Product List | Glossary On
Versions: 1 2 3 4 5 6 7 8 9 10 11 12 13 14 15 16 17 18 19 20 21 22 23 24 25 26 27 28 29 30 31 32 33 34 35 36 37 38 39 40 41 42 43 44 45 46 47 48 49 50
000
ASUS44 KLIX 272310
RWRLIX
NEW ORLEANS REGIONAL WEATHER ROUNDUP
NATIONAL WEATHER SERVICE NEW ORLEANS LA
500 PM CST TUE JAN 27 2015

NOTE: "FAIR" INDICATES FEW OR NO CLOUDS BELOW 12,000 FEET WITH NO
      SIGNIFICANT WEATHER AND/OR OBSTRUCTIONS TO VISIBILITY.
      SKY/WX - SKY CONDITION AND SIGNIFICANT WEATHER.
      TMP - AIR TEMPERATURE.     DP    - DEWPOINT TEMPERATURE.
      RH  - RELATIVE HUMIDITY.   PRES  - PRESSURE.
      HI  - HEAT INDEX.          WCI   - WIND CHILL INDEX.

*  THESE STATIONS ARE NOT NWS OR FAA STATIONS AND ARE NOT UNDER
   NWS QUALITY CONTROL.

LAZ038-040-048-061>063-065>067-069-280000-
SOUTHEAST LOUISIANA

CITY           SKY/WX    TMP DP  RH WIND       PRES   REMARKS
N.O. AUDUBON     N/A     70  41  35 MISG        N/A
N.O. INTL ARPT CLEAR     71  38  29 NW8       30.08S
N.O. LAKEFRONT CLEAR     64  46  52 W9        30.09R
N.O. DOWNTOWN*   N/A    N/A N/A N/A NW6       30.08S
SLIDELL        CLEAR     70  41  34 SW3       30.07R
BATON ROUGE    CLEAR     72  36  26 W7        30.09S
BOOTHVILLE     CLEAR     63  51  65 W6        30.09S
BELLE CHASSE   CLEAR     72  34  24 VRB7      30.08R
BOGALUSA*        N/A     71  32  23 NW7       30.09R
GALLIANO*      CLEAR     69  47  45 MISG      30.10R
NEW ROADS*       N/A     69  36  29 NW8       30.11R
GONZALES*        N/A     73  35  25 N7        30.09R
HAMMOND*       CLEAR     72  30  21 NW6       30.10R
HOUMA*         CLEAR     73  39  29 W7        30.09R
PORT FOURCHON* CLEAR     64  50  59 SW7       30.13R

$$

MSZ070-080>082-280000-
SOUTHERN MISSISSIPPI

CITY           SKY/WX    TMP DP  RH WIND       PRES   REMARKS
MCCOMB         CLEAR     69  34  27 NW7       30.09R
GULFPORT       CLEAR     68  36  30 NW8       30.06R
BILOXI         CLEAR     69  36  30 VRB3      30.06R
PASCAGOULA     CLEAR     68  33  27 NW7       30.05R
STENNIS ARPT*  CLEAR     68  27  21 N8        30.07R

$$

COASTAL OBSERVATIONS
LAKE AND NEARSHORE STATIONS

STATION/POSITION TIME  TEMP    WIND        PRES    WAVE
                       AIR SEA DIR/SP/G            HT/PER
                 (UTC) (F)     (DEG/KT/KT) (MB)    (FT/S)
PASCAGOULA       2300   60     260/  9/ 12 1017.3
WAVELAND YACHT   2300   70     340/  9/ 12 1017.3
GRAND ISLE       2300   66 62  230/  6/  7 1019.5
SOUTHWEST PASS   2300   65 48  220/  5/  6 1019.4
NEW CANAL        2300   69 54  270/  2/  3 1018.9
SHELL BEACH      2300   69 56  280/ 10/ 11 1018.3

OFFSHORE STATIONS

STATION/POSITION TIME  TEMP    WIND        PRES    WAVE
                       AIR SEA DIR/SP/G            HT/PER
                 (UTC) (F)     (DEG/KT/KT) (MB)    (FT/S)
64 S DAUPHIN ISL 2247   63 67  320/ 12/ 14 1018.6    3/ 6

$$



USA.gov is the U.S. government's official web portal to all federal, state and local government web resources and services.